Location: downtown San Diego
(32.7310°N, 117.1990°W)
Time: 14:15:23
(UTC-08:00)

YAOGAN 6 - Pass Details

Date: 12 July 2018
Orbit: 467 x 505 km, 97.1° (Epoch: 09 December)

Event Time Altitude Azimuth Distance (km) Brightness Sun altitude
Rises 20:53:06 0° 186° (S) 2,488 5.9 -10.7°
Reaches altitude 10° 20:55:15 10° 196° (SSW) 1,617 5.0 -11.0°
Maximum altitude 20:58:26 34° 262° (W) 797 4.1 -11.6°
Drops below altitude 10° 21:01:39 10° 329° (NNW) 1,636 6.4 -12.1°
Sets 21:03:51 0° 339° (NNW) 2,523 7.3 -12.5°
